Location: Gleizolles
(44.4833°N, 6.7667°E)
Time: 01:11:30
(UTC+00:00)

Vanguard 2 Rocket - Pass Details

Date: 15 June 2024
Orbit: 555 x 3302 km, 32.9° (Epoch: 24 July)

Event Time Altitude Azimuth Distance (km) Brightness Sun altitude
Rises 01:04:29 0° 193° (SSW) 7,144 - -19.1°
Reaches altitude 10° 01:11:33 10° 178° (S) 6,244 - -18.6°
Exits shadow 01:13:14 12° 174° (S) 6,057 10.6 -18.5°
Maximum altitude 01:23:24 19° 141° (SE) 5,306 10.5 -17.7°
Drops below altitude 10° 01:33:56 10° 104° (ESE) 5,557 11.1 -16.8°
Sets 01:39:29 0° 89° (E) 6,154 11.6 -16.3°
